| time (UTC) | temp F | wind direction | speed knots | gust knots | rain 1hr in | rain 24hr in | rain mn in | humidity % | barometer mb |
| 20260505011520 | 62 | 37 | 13.9 | 27.8 | 0.00 | 0.00 | 0.00 | 35 | 1006.4 |
| 20260505011005 | 63 | 355 | 12.2 | 25.2 | 0.00 | 0.00 | 0.00 | 34 | 1006.1 |
| 20260505010503 | 63 | 7 | 14.8 | 28.7 | 0.00 | 0.00 | 0.00 | 32 | 1006.0 |
| 20260505010024 | 64 | 9 | 15.6 | 28.7 | 0.00 | 0.00 | 0.00 | 32 | 1005.9 |
| 20260505005507 | 65 | 357 | 8.7 | 18.2 | 0.00 | 0.00 | 0.00 | 33 | 1005.7 |
| 20260505005011 | 65 | 27 | 8.7 | 18.2 | 0.00 | 0.00 | 0.00 | 33 | 1005.6 |
| 20260505004527 | 65 | 342 | 10.4 | 25.2 | 0.00 | 0.00 | 0.00 | 32 | 1005.7 |
| 20260505004005 | 66 | 353 | 10.4 | 21.7 | 0.00 | 0.00 | 0.00 | 32 | 1005.5 |
| 20260505003508 | 67 | 1 | 9.6 | 23.5 | 0.00 | 0.00 | 0.00 | 32 | 1005.3 |
| 20260505003010 | 67 | 13 | 12.2 | 23.5 | 0.00 | 0.00 | 0.00 | 31 | 1005.4 |
| 20260505002503 | 68 | 296 | 7.8 | 21.7 | 0.00 | 0.00 | 0.00 | 31 | 1005.2 |
| 20260505002007 | 69 | 21 | 10.4 | 21.7 | 0.00 | 0.00 | 0.00 | 31 | 1005.1 |
| 20260505001514 | 69 | 4 | 9.6 | 20.0 | 0.00 | 0.00 | 0.00 | 31 | 1005.0 |
| 20260505001007 | 69 | 5 | 8.7 | 16.5 | 0.00 | 0.00 | 0.00 | 31 | 1004.9 |
| 20260505000514 | 69 | 17 | 9.6 | 22.6 | 0.00 | 0.00 | 0.00 | 31 | 1005.0 |
| 20260505000014 | 70 | 355 | 11.3 | 22.6 | 0.00 | 0.00 | 0.00 | 30 | 1005.0 |
| 20260504235510 | 70 | 23 | 9.6 | 16.5 | 0.00 | 0.00 | 0.00 | 29 | 1005.0 |
| 20260504235008 | 71 | 43 | 8.7 | 15.6 | 0.00 | 0.00 | 0.00 | 29 | 1005.0 |
| 20260504234510 | 72 | 23 | 8.7 | 16.5 | 0.00 | 0.00 | 0.00 | 29 | 1005.0 |
| 20260504234007 | 72 | 6 | 11.3 | 17.4 | 0.00 | 0.00 | 0.00 | 29 | 1005.0 |
| 20260504233506 | 72 | 352 | 10.4 | 15.6 | 0.00 | 0.00 | 0.00 | 29 | 1004.9 |
| 20260504233008 | 72 | 25 | 7.8 | 14.8 | 0.00 | 0.00 | 0.00 | 29 | 1004.7 |
| 20260504232505 | 73 | 38 | 10.4 | 14.8 | 0.00 | 0.00 | 0.00 | 28 | 1004.5 |
| 20260504232006 | 73 | 45 | 7.0 | 14.8 | 0.00 | 0.00 | 0.00 | 28 | 1004.4 |
| 20260504231512 | 74 | 48 | 7.0 | 16.5 | 0.00 | 0.00 | 0.00 | 29 | 1004.4 |
| 20260504231006 | 74 | 32 | 11.3 | 16.5 | 0.00 | 0.00 | 0.00 | 27 | 1004.3 |
| 20260504230504 | 74 | 36 | 12.2 | 17.4 | 0.00 | 0.00 | 0.00 | 27 | 1004.3 |
| 20260504230018 | 75 | 30 | 12.2 | 17.4 | 0.00 | 0.00 | 0.00 | 27 | 1004.1 |
| 20260504225509 | 75 | 7 | 8.7 | 20.0 | 0.00 | 0.00 | 0.00 | 28 | 1003.8 |
| 20260504225009 | 76 | 328 | 10.4 | 20.0 | 0.00 | 0.00 | 0.00 | 27 | 1003.7 |
| 20260504224523 | 76 | 26 | 8.7 | 15.6 | 0.00 | 0.00 | 0.00 | 27 | 1003.6 |
| 20260504224004 | 77 | 344 | 7.0 | 16.5 | 0.00 | 0.00 | 0.00 | 27 | 1003.5 |
| 20260504223511 | 77 | 30 | 6.1 | 16.5 | 0.00 | 0.00 | 0.00 | 27 | 1003.5 |
| 20260504223033 | 78 | 1 | 6.1 | 16.5 | 0.00 | 0.00 | 0.00 | 27 | 1003.3 |
| 20260504222504 | 78 | 7 | 10.4 | 16.5 | 0.00 | 0.00 | 0.00 | 26 | 1003.2 |
| 20260504222004 | 79 | 48 | 7.0 | 13.9 | 0.00 | 0.00 | 0.00 | 27 | 1003.0 |
| 20260504221512 | 79 | 1 | 6.1 | 13.9 | 0.00 | 0.00 | 0.00 | 28 | 1002.8 |
| 20260504221005 | 79 | 300 | 7.0 | 13.0 | 0.00 | 0.00 | 0.00 | 26 | 1002.7 |
| 20260504220506 | 79 | 26 | 5.2 | 16.5 | 0.00 | 0.00 | 0.00 | 28 | 1002.7 |
| 20260504220017 | 79 | 351 | 8.7 | 17.4 | 0.00 | 0.00 | 0.00 | 27 | 1002.6 |
| 20260504215507 | 79 | 5 | 5.2 | 17.4 | 0.00 | 0.00 | 0.00 | 28 | 1002.5 |
| 20260504215008 | 79 | 36 | 7.0 | 13.9 | 0.00 | 0.00 | 0.00 | 28 | 1002.5 |
| 20260504214516 | 79 | 2 | 7.0 | 15.6 | 0.00 | 0.00 | 0.00 | 30 | 1002.6 |
| 20260504214008 | 78 | 20 | 7.0 | 14.8 | 0.00 | 0.00 | 0.00 | 28 | 1002.6 |
| 20260504213507 | 79 | 17 | 8.7 | 13.9 | 0.00 | 0.00 | 0.00 | 29 | 1002.6 |
| 20260504213021 | 79 | 2 | 7.8 | 13.9 | 0.00 | 0.00 | 0.00 | 29 | 1002.6 |
| 20260504212513 | 79 | 318 | 7.8 | 13.9 | 0.00 | 0.00 | 0.00 | 30 | 1002.5 |
| 20260504212008 | 79 | 356 | 7.0 | 13.9 | 0.00 | 0.00 | 0.00 | 30 | 1002.5 |
| 20260504211532 | 79 | 19 | 8.7 | 17.4 | 0.00 | 0.00 | 0.00 | 30 | 1002.4 |
| 20260504211004 | 79 | 48 | 8.7 | 17.4 | 0.00 | 0.00 | 0.00 | 30 | 1002.4 |
| 20260504210504 | 80 | 359 | 7.0 | 16.5 | 0.00 | 0.00 | 0.00 | 32 | 1002.4 |
| 20260504210014 | 80 | 331 | 7.8 | 12.2 | 0.00 | 0.00 | 0.00 | 31 | 1002.3 |
| 20260504205507 | 80 | 9 | 3.5 | 13.9 | 0.00 | 0.00 | 0.00 | 31 | 1002.4 |
| 20260504205005 | 80 | 60 | 8.7 | 13.9 | 0.00 | 0.00 | 0.00 | 32 | 1002.3 |
| 20260504204533 | 80 | 50 | 7.0 | 13.0 | 0.00 | 0.00 | 0.00 | 32 | 1002.2 |
| 20260504204011 | 80 | 38 | 6.1 | 17.4 | 0.00 | 0.00 | 0.00 | 31 | 1002.2 |
| 20260504203508 | 80 | 345 | 8.7 | 17.4 | 0.00 | 0.00 | 0.00 | 32 | 1002.2 |
| 20260504203026 | 80 | 306 | 6.1 | 12.2 | 0.00 | 0.00 | 0.00 | 31 | 1002.3 |
| 20260504202506 | 80 | 1 | 6.1 | 13.9 | 0.00 | 0.00 | 0.00 | 32 | 1002.2 |
| 20260504202011 | 80 | 260 | 9.6 | 20.0 | 0.00 | 0.00 | 0.00 | 31 | 1002.2 |
| 20260504201520 | 81 | 308 | 10.4 | 20.0 | 0.00 | 0.00 | 0.00 | 32 | 1002.2 |
| 20260504201006 | 81 | 321 | 7.0 | 14.8 | 0.00 | 0.00 | 0.00 | 31 | 1002.1 |
| 20260504200510 | 80 | 331 | 8.7 | 14.8 | 0.00 | 0.00 | 0.00 | 31 | 1002.2 |
| 20260504200018 | 80 | 296 | 8.7 | 13.0 | 0.00 | 0.00 | 0.00 | 30 | 1002.2 |
| 20260504195503 | 80 | 352 | 7.8 | 11.3 | 0.00 | 0.00 | 0.00 | 30 | 1002.1 |
| 20260504195004 | 80 | 34 | 6.1 | 16.5 | 0.00 | 0.00 | 0.00 | 30 | 1002.2 |
| 20260504194515 | 80 | 96 | 8.7 | 17.4 | 0.00 | 0.00 | 0.00 | 30 | 1002.1 |
| 20260504194008 | 80 | 325 | 8.7 | 17.4 | 0.00 | 0.00 | 0.00 | 30 | 1002.1 |
| 20260504193509 | 81 | 348 | 8.7 | 14.8 | 0.00 | 0.00 | 0.00 | 30 | 1001.9 |
| 20260504193012 | 81 | 36 | 6.1 | 13.0 | 0.00 | 0.00 | 0.00 | 30 | 1001.9 |
| 20260504192510 | 81 | 360 | 7.0 | 14.8 | 0.00 | 0.00 | 0.00 | 30 | 1001.8 |
| 20260504192007 | 82 | 307 | 5.2 | 14.8 | 0.00 | 0.00 | 0.00 | 27 | 1001.9 |
| 20260504191525 | 81 | 327 | 8.7 | 13.0 | 0.00 | 0.00 | 0.00 | 29 | 1001.8 |
| 20260504191010 | 81 | 346 | 5.2 | 16.5 | 0.00 | 0.00 | 0.00 | 29 | 1001.8 |
| 20260504190507 | 82 | 337 | 7.0 | 16.5 | 0.00 | 0.00 | 0.00 | 27 | 1001.8 |
| 20260504190027 | 81 | 298 | 5.2 | 16.5 | 0.00 | 0.00 | 0.00 | 29 | 1001.6 |
| 20260504185508 | 81 | 341 | 5.2 | 16.5 | 0.00 | 0.00 | 0.00 | 28 | 1001.6 |
| 20260504185008 | 81 | 334 | 8.7 | 15.6 | 0.00 | 0.00 | 0.00 | 27 | 1001.6 |
| 20260504184514 | 81 | 354 | 7.8 | 15.6 | 0.00 | 0.00 | 0.00 | 28 | 1001.5 |
| 20260504184007 | 81 | 350 | 6.1 | 13.0 | 0.00 | 0.00 | 0.00 | 29 | 1001.5 |
| 20260504183509 | 81 | 304 | 5.2 | 14.8 | 0.00 | 0.00 | 0.00 | 28 | 1001.5 |
| 20260504183022 | 81 | 290 | 5.2 | 14.8 | 0.00 | 0.00 | 0.00 | 28 | 1001.6 |
| 20260504182504 | 81 | 302 | 9.6 | 15.6 | 0.00 | 0.00 | 0.00 | 27 | 1001.7 |
| 20260504182009 | 81 | 306 | 6.1 | 15.6 | 0.00 | 0.00 | 0.00 | 28 | 1001.7 |
| 20260504181523 | 81 | 310 | 7.8 | 15.6 | 0.00 | 0.00 | 0.00 | 28 | 1001.8 |
| 20260504181008 | 81 | 302 | 7.0 | 15.6 | 0.00 | 0.00 | 0.00 | 29 | 1001.7 |
| 20260504180510 | 81 | 318 | 7.0 | 15.6 | 0.00 | 0.00 | 0.00 | 27 | 1001.9 |
| 20260504180022 | 80 | 290 | 9.6 | 15.6 | 0.00 | 0.00 | 0.00 | 27 | 1001.9 |
| 20260504175508 | 81 | 19 | 7.8 | 13.0 | 0.00 | 0.00 | 0.00 | 28 | 1002.1 |
| 20260504175008 | 81 | 290 | 5.2 | 12.2 | 0.00 | 0.00 | 0.00 | 28 | 1002.1 |
| 20260504174518 | 81 | 318 | 3.5 | 10.4 | 0.00 | 0.00 | 0.00 | 31 | 1002.1 |
| 20260504174013 | 80 | 17 | 2.6 | 12.2 | 0.00 | 0.00 | 0.00 | 34 | 1002.2 |
| 20260504173504 | 80 | 17 | 6.1 | 12.2 | 0.00 | 0.00 | 0.00 | 32 | 1002.1 |
| 20260504173016 | 80 | 8 | 3.5 | 11.3 | 0.00 | 0.00 | 0.00 | 32 | 1002.2 |
| 20260504172508 | 79 | 26 | 6.1 | 10.4 | 0.00 | 0.00 | 0.00 | 33 | 1002.2 |
| 20260504172011 | 79 | 311 | 3.5 | 7.8 | 0.00 | 0.00 | 0.00 | 32 | 1002.3 |
| 20260504171520 | 78 | 331 | 2.6 | 11.3 | 0.00 | 0.00 | 0.00 | 34 | 1002.3 |
| 20260504171015 | 78 | 341 | 3.5 | 11.3 | 0.00 | 0.00 | 0.00 | 35 | 1002.4 |
| 20260504170507 | 78 | 334 | 6.1 | 10.4 | 0.00 | 0.00 | 0.00 | 36 | 1002.6 |
| 20260504151013 | 70 | 3.5 | 7.0 | 0.00 | 0.00 | 0.00 | 42 | 1002.5 | |
| 20260504150508 | 69 | 1.7 | 5.2 | 0.00 | 0.00 | 0.00 | 41 | 1002.5 | |
| 20260504141009 | 65 | 313 | 3.5 | 6.1 | 0.00 | 0.00 | 0.00 | 52 | 1002.9 |
| 20260504140507 | 65 | 1.7 | 4.3 | 0.00 | 0.00 | 0.00 | 53 | 1003.0 | |
| 20260504130507 | 57 | 0.0 | 1.7 | 0.00 | 0.00 | 0.00 | 66 | 1002.6 | |
| 20260504110504 | 47 | 168 | 0.0 | 0.0 | 0.00 | 0.00 | 0.00 | 80 | 1002.4 |
| 20260504100502 | 47 | 168 | 0.0 | 0.0 | 0.00 | 0.00 | 0.00 | 77 | 1002.6 |
| 20260504082004 | 50 | 168 | 0.0 | 0.0 | 0.00 | 0.00 | 0.00 | 72 | 1003.9 |
| 20260504081503 | 50 | 168 | 0.0 | 0.0 | 0.00 | 0.00 | 0.00 | 71 | 1004.0 |
| 20260504081003 | 50 | 168 | 0.0 | 0.9 | 0.00 | 0.00 | 0.00 | 71 | 1004.2 |
| 20260504080502 | 50 | 168 | 0.0 | 0.9 | 0.00 | 0.00 | 0.00 | 70 | 1004.1 |
| 20260504050504 | 56 | 157 | 1.7 | 2.6 | 0.00 | 0.00 | 0.00 | 61 | 1006.8 |
| 20260504050020 | 56 | 181 | 0.9 | 0.9 | 0.00 | 0.00 | 0.00 | 60 | 1006.8 |
| 20260504045504 | 56 | 181 | 0.9 | 0.9 | 0.00 | 0.00 | 0.00 | 59 | 1006.8 |
| 20260504045004 | 57 | 181 | 0.9 | 0.9 | 0.00 | 0.00 | 0.00 | 59 | 1006.9 |
| 20260504044524 | 57 | 181 | 0.9 | 1.7 | 0.00 | 0.00 | 0.00 | 58 | 1006.9 |
| 20260504044005 | 57 | 181 | 0.0 | 1.7 | 0.00 | 0.00 | 0.00 | 57 | 1007.0 |
| 20260504043504 | 58 | 181 | 0.0 | 1.7 | 0.00 | 0.00 | 0.00 | 57 | 1007.1 |
| 20260504043010 | 58 | 181 | 0.9 | 1.7 | 0.00 | 0.00 | 0.00 | 56 | 1007.1 |
| 20260504042502 | 58 | 181 | 1.7 | 1.7 | 0.00 | 0.00 | 0.00 | 56 | 1007.1 |
| 20260504042003 | 58 | 181 | 1.7 | 1.7 | 0.00 | 0.00 | 0.00 | 56 | 1007.1 |
| 20260504041515 | 58 | 181 | 0.9 | 2.6 | 0.00 | 0.00 | 0.00 | 55 | 1007.3 |
| 20260504041004 | 59 | 181 | 0.9 | 2.6 | 0.00 | 0.00 | 0.00 | 54 | 1007.3 |
| 20260504040503 | 59 | 181 | 1.7 | 1.7 | 0.00 | 0.00 | 0.00 | 53 | 1007.3 |
| 20260504040017 | 59 | 181 | 0.0 | 1.7 | 0.00 | 0.00 | 0.00 | 53 | 1007.4 |
| 20260504035505 | 60 | 181 | 0.0 | 0.9 | 0.00 | 0.00 | 0.00 | 53 | 1007.4 |
| 20260504035004 | 60 | 181 | 0.0 | 1.7 | 0.00 | 0.00 | 0.00 | 52 | 1007.5 |
| 20260504034512 | 60 | 181 | 0.9 | 2.6 | 0.00 | 0.00 | 0.00 | 52 | 1007.5 |
| 20260504034005 | 60 | 181 | 1.7 | 2.6 | 0.00 | 0.00 | 0.00 | 52 | 1007.6 |
| 20260504033504 | 60 | 179 | 1.7 | 2.6 | 0.00 | 0.00 | 0.00 | 52 | 1007.6 |
| 20260504033010 | 60 | 174 | 1.7 | 2.6 | 0.00 | 0.00 | 0.00 | 51 | 1007.6 |
| 20260504032504 | 60 | 224 | 0.9 | 1.7 | 0.00 | 0.00 | 0.00 | 49 | 1007.6 |
| 20260504032006 | 61 | 224 | 0.0 | 0.0 | 0.00 | 0.00 | 0.00 | 49 | 1007.6 |
| 20260504031510 | 61 | 224 | 0.0 | 0.0 | 0.00 | 0.00 | 0.00 | 49 | 1007.7 |
| 20260504031003 | 61 | 224 | 0.0 | 0.0 | 0.00 | 0.00 | 0.00 | 48 | 1007.7 |
| 20260504030504 | 62 | 224 | 0.0 | 0.0 | 0.00 | 0.00 | 0.00 | 49 | 1007.7 |
| 20260504030021 | 62 | 224 | 0.0 | 0.0 | 0.00 | 0.00 | 0.00 | 47 | 1007.8 |
| 20260504025507 | 62 | 224 | 0.0 | 0.0 | 0.00 | 0.00 | 0.00 | 45 | 1007.8 |
| 20260504025004 | 63 | 224 | 0.0 | 0.0 | 0.00 | 0.00 | 0.00 | 45 | 1007.7 |
| 20260504024515 | 63 | 224 | 0.0 | 0.9 | 0.00 | 0.00 | 0.00 | 46 | 1007.7 |
| 20260504024004 | 63 | 224 | 0.0 | 0.0 | 0.00 | 0.00 | 0.00 | 45 | 1007.8 |
| 20260504023505 | 63 | 224 | 0.0 | 1.7 | 0.00 | 0.00 | 0.00 | 45 | 1007.9 |
| 20260504023016 | 63 | 224 | 0.0 | 1.7 | 0.00 | 0.00 | 0.00 | 44 | 1007.9 |
| 20260504022506 | 64 | 224 | 0.0 | 1.7 | 0.00 | 0.00 | 0.00 | 43 | 1007.9 |
| 20260504022005 | 64 | 224 | 0.0 | 1.7 | 0.00 | 0.00 | 0.00 | 43 | 1007.9 |
| 20260504021516 | 64 | 224 | 0.0 | 1.7 | 0.00 | 0.00 | 0.00 | 42 | 1008.0 |
| 20260504021005 | 65 | 224 | 0.0 | 1.7 | 0.00 | 0.00 | 0.00 | 42 | 1008.1 |
| 20260504020505 | 65 | 224 | 0.9 | 1.7 | 0.00 | 0.00 | 0.00 | 42 | 1008.1 |
| 20260504020017 | 65 | 224 | 0.9 | 3.5 | 0.00 | 0.00 | 0.00 | 41 | 1008.2 |
| 20260504015504 | 66 | 234 | 0.9 | 3.5 | 0.00 | 0.00 | 0.00 | 40 | 1008.1 |
| 20260504015008 | 66 | 246 | 0.9 | 3.5 | 0.00 | 0.00 | 0.00 | 39 | 1008.1 |
| 20260504014516 | 66 | 233 | 0.0 | 1.7 | 0.00 | 0.00 | 0.00 | 39 | 1008.1 |
| 20260504014004 | 67 | 231 | 0.0 | 1.7 | 0.00 | 0.00 | 0.00 | 39 | 1008.0 |
| 20260504013504 | 67 | 230 | 0.0 | 1.7 | 0.00 | 0.00 | 0.00 | 38 | 1008.1 |
| 20260504013014 | 68 | 230 | 0.0 | 1.7 | 0.00 | 0.00 | 0.00 | 38 | 1008.1 |
| 20260504012509 | 68 | 214 | 0.0 | 2.6 | 0.00 | 0.00 | 0.00 | 38 | 1008.2 |
| 20260504012006 | 69 | 236 | 0.0 | 2.6 | 0.00 | 0.00 | 0.00 | 36 | 1008.3 |